[Iaude] MPEC S26: 2016 RX40

mpec at si.edu mpec at si.edu
Thu Sep 29 16:10:18 EDT 2016


M.P.E.C. 2016-S26                                Issued 2016 Sept. 24, 18:00 UT
 
     The Minor Planet Electronic Circulars contain information on unusual
         minor planets and routine data on comets.  They are published
    on behalf of Division F of the International Astronomical Union by the
          Minor Planet Center, Smithsonian Astrophysical Observatory,
                          Cambridge, MA 02138, U.S.A.

             Prepared using the Tamkin Foundation Computer Network

                              MPC at CFA.HARVARD.EDU
            URL http://www.minorplanetcenter.net/    ISSN 1523-6714


                                   2016 RX40
 
Observations:
     K16R40X* C2016 09 08.52402 00 57 45.743-15 54 05.98         22.1 wLES026F51
     K16R40X  C2016 09 08.53535 00 57 46.173-15 54 18.47         21.8 wLES026F51
     K16R40X  C2016 09 08.54664 00 57 46.633-15 54 30.66         22.1 wLES026F51
     K16R40X  C2016 09 08.55797 00 57 47.056-15 54 43.73         22.0 wLES026F51
     K16R40X  C2016 09 09.33987 00 58 21.39 -16 09 15.7          22.1 VqES026G96
     K16R40X  C2016 09 09.34592 00 58 21.68 -16 09 22.9          22.1 VqES026G96
     K16R40X KC2016 09 09.36835400 58 22.00 -16 09 33.0          21.7 RtES026W86
     K16R40X KC2016 09 09.37562700 58 22.27 -16 09 40.9          22.0 RtES026W86
     K16R40X KC2016 09 09.38531600 58 22.65 -16 09 51.7          20.8 RtES026W86
     K16R40X |C2016 09 12.18964 01 00 19.12 -17 02 34.7          22.0 VuES026807
     K16R40X |C2016 09 12.20266 01 00 19.57 -17 02 49.9          22.0 VuES026807
     K16R40X |C2016 09 12.21570 01 00 20.03 -17 03 04.9          22.0 VuES026807
     K16R40X "C2016 09 23.37479501 06 26.12 -20 35 25.7          20.6 RtES026705
     K16R40X "C2016 09 23.37581601 06 26.18 -20 35 27.1          20.5 RtES026705
     K16R40X "C2016 09 23.37683001 06 26.21 -20 35 28.3          21.0 RtES026705
     K16R40X KC2016 09 24.29124 01 06 50.39 -20 52 19.2                oES026291
     K16R40X KC2016 09 24.29557 01 06 50.49 -20 52 24.0                oES026291
 
Observer details:
291 LPL/Spacewatch II.  Observer T. H. Bressi.  1.8-m f/2.7 reflector + CCD.
705 Apache Point.  Observers K. Nault, M. Hammergren, M. Brucker.  Measurer
    K. Nault.  3.5-m f/10 reflector + CCD.
807 Cerro Tololo.  Observers T. Linder, R. Holmes.  0.61-m f/6.5 astrograph
    + CCD.
F51 Pan-STARRS 1, Haleakala.  Observers B. Gibson, T. Goggia, N. Primak,
    A. Schultz, M. Willman.  Measurers K. Chambers, S. Chastel, L. Denneau,
    H. Flewelling, M. Huber, E. Lilly, E. Magnier, R. Wainscoat, C. Waters,
    R. Weryk.  1.8-m Ritchey-Chretien + CCD.
G96 Mt. Lemmon Survey.  Observer A. R. Gibbs.  Measurers E. J. Christensen,
    D. C. Fuls, A. R. Gibbs, A. D. Grauer, J. A. Johnson, R. A. Kowalski,
    S. M. Larson, G. J. Leonard, R. G. Matheny, R. L. Seaman, F. C. Shelly.
    1.5-m reflector + 10K CCD.
W86 Cerro Tololo-LCOGT B.  Observers T. Lister, S. Greenstreet, E. Gomez.
    Measurer S. Greenstreet.  1.0-m f/8 Ritchey-Chretien + CCD.
 
Orbital elements:
2016 RX40
Epoch 2016 July 31.0 TT = JDT 2457600.5                 MPC
M 340.15981              (2000.0)            P               Q
n   0.17662792     Peri.  273.68002     +0.71232555     -0.68505079
a   3.1460321      Node   129.63675     +0.69651179     +0.66321916
e   0.5524694      Incl.   11.43182     +0.08639241     +0.30140631
P   5.58           H   20.9           G   0.15           U   6
Residuals in seconds of arc
160908 F51  0.0   0.0     160909 W86  0.1-  0.1+    160923 705  0.1-  0.3+
160908 F51  0.1-  0.0     160909 W86  0.2-  0.2+    160923 705  0.4+  0.0
160908 F51  0.3+  0.3+    160909 W86  0.2-  0.1+    160923 705  0.5+  0.1-
160908 F51  0.1+  0.3-    160912 807  0.0   0.3+    160924 291  0.3-  0.0
160909 G96  1.1-  0.4-    160912 807  0.0   0.0     160924 291  0.1-  0.0
160909 G96  0.2-  0.8-    160912 807  0.2+  0.1-

Ephemeris:
2016 RX40                a,e,i = 3.15, 0.55, 11                  q = 1.4079
Date    TT    R. A. (2000) Decl.     Delta      r     Elong.  Phase     V
2016 08 25    00 45 03.9 -11 51 41   0.7544  1.6781   143.5    21.0    22.4
...
2016 09 09    00 58 06.6 -16 02 46   0.6424  1.6014   151.5    17.5    21.9
...
2016 09 17    01 03 14.9 -18 34 31   0.5984  1.5642   153.7    16.5    21.6
...
2016 09 23    01 06 16.4 -20 28 16   0.5724  1.5383   153.9    16.7    21.5
2016 09 24    01 06 42.6 -20 46 45   0.5686  1.5341   153.8    16.8    21.5
2016 09 25    01 07 07.8 -21 05 03   0.5650  1.5301   153.7    16.9    21.5
...
2016 10 01    01 09 18.4 -22 48 39   0.5468  1.5067   152.2    18.0    21.4
...
2016 10 09    01 11 34.6 -24 42 21   0.5308  1.4789   148.9    20.4    21.4
...
2016 10 24    01 15 52.0 -26 22 41   0.5231  1.4382   140.7    26.0    21.5

A. U. Tomatic                (C) Copyright 2016 MPC           M.P.E.C. 2016-S26




More information about the Iaude mailing list